Radiation Dose at Monitoring Post of Fukushima Daini Nuclear Power Station
Date,Time,MP-1(microSv/h),MP-2(microSv/h),MP-3(microSv/h),MP-4(microSv/h),MP-5(microSv/h),MP-6(microSv/h),MP-7(microSv/h),Wind Direction,Wind Velocity(m/s),Rain
2019/06/08,00:00,0.193,0.176,0.291,0.274,0.269,0.146,0.091,northwest,6.8,Yes
2019/06/08,00:10,0.192,0.174,0.290,0.273,0.269,0.146,0.091,northwest,8.4,No
2019/06/08,00:20,0.192,0.174,0.291,0.274,0.267,0.146,0.092,north-northwest,7.8,No
2019/06/08,00:30,0.190,0.176,0.289,0.275,0.268,0.145,0.091,north-northwest,8.1,No
2019/06/08,00:40,0.191,0.174,0.290,0.273,0.267,0.147,0.091,north-northwest,8.2,Yes
2019/06/08,00:50,0.191,0.177,0.290,0.274,0.270,0.145,0.092,north-northwest,8.1,Yes
2019/06/08,01:00,0.193,0.175,0.290,0.273,0.267,0.146,0.091,north-northwest,8.4,No
2019/06/08,01:10,0.191,0.176,0.291,0.275,0.270,0.146,0.090,north-northwest,8.4,No
2019/06/08,01:20,0.191,0.175,0.289,0.272,0.269,0.146,0.092,north-northwest,7.1,No
2019/06/08,01:30,0.192,0.176,0.290,0.274,0.268,0.146,0.091,north-northwest,7.3,No
2019/06/08,01:40,0.191,0.174,0.290,0.273,0.270,0.147,0.091,north-northwest,6.3,No
2019/06/08,01:50,0.190,0.175,0.290,0.274,0.269,0.146,0.091,north-northwest,6.6,No
2019/06/08,02:00,0.190,0.175,0.289,0.273,0.268,0.145,0.091,north-northwest,6.4,No
2019/06/08,02:10,0.192,0.175,0.290,0.275,0.268,0.145,0.090,northwest,7.3,No
2019/06/08,02:20,0.190,0.176,0.290,0.274,0.268,0.146,0.091,north-northwest,7.4,No
2019/06/08,02:30,0.190,0.175,0.291,0.273,0.268,0.146,0.091,north-northwest,7.8,No
2019/06/08,02:40,0.189,0.176,0.289,0.272,0.267,0.146,0.089,northwest,7.0,No
2019/06/08,02:50,0.190,0.175,0.291,0.272,0.267,0.145,0.090,northwest,7.4,No
2019/06/08,03:00,0.190,0.175,0.289,0.273,0.268,0.146,0.090,northwest,7.9,No
2019/06/08,03:10,0.190,0.175,0.290,0.273,0.267,0.145,0.089,northwest,8.7,No
2019/06/08,03:20,0.188,0.175,0.290,0.273,0.268,0.145,0.089,northwest,8.5,No
2019/06/08,03:30,0.191,0.175,0.288,0.273,0.268,0.145,0.090,northwest,8.9,No
2019/06/08,03:40,0.190,0.174,0.290,0.273,0.267,0.145,0.090,northwest,8.7,No
2019/06/08,03:50,0.191,0.174,0.290,0.274,0.265,0.144,0.090,northwest,9.3,No
2019/06/08,04:00,0.190,0.173,0.289,0.272,0.266,0.145,0.090,northwest,9.0,No
2019/06/08,04:10,0.191,0.174,0.289,0.273,0.266,0.144,0.090,northwest,8.9,No
2019/06/08,04:20,0.190,0.173,0.289,0.272,0.267,0.144,0.090,northwest,8.2,No
2019/06/08,04:30,0.190,0.175,0.289,0.273,0.266,0.144,0.089,northwest,7.8,No
2019/06/08,04:40,0.189,0.173,0.290,0.271,0.266,0.145,0.089,northwest,7.7,No
2019/06/08,04:50,0.191,0.174,0.289,0.272,0.266,0.145,0.090,north-northwest,7.3,No
2019/06/08,05:00,0.190,0.173,0.289,0.272,0.265,0.144,0.089,north-northwest,8.9,No
2019/06/08,05:10,0.191,0.174,0.290,0.273,0.267,0.145,0.090,north-northwest,8.2,No
2019/06/08,05:20,0.189,0.173,0.290,0.269,0.265,0.145,0.089,north-northwest,9.3,No
2019/06/08,05:30,0.191,0.173,0.290,0.273,0.268,0.145,0.089,north-northwest,9.0,No
2019/06/08,05:40,0.190,0.173,0.289,0.271,0.267,0.145,0.090,north-northwest,8.6,No
2019/06/08,05:50,0.191,0.174,0.289,0.272,0.267,0.145,0.089,north-northwest,9.8,No
2019/06/08,06:00,0.189,0.172,0.290,0.271,0.265,0.145,0.088,north-northwest,8.4,No
2019/06/08,06:10,0.191,0.173,0.289,0.274,0.269,0.145,0.089,north-northwest,9.0,No
2019/06/08,06:20,0.190,0.174,0.292,0.272,0.266,0.144,0.089,north-northwest,9.0,No
2019/06/08,06:30,0.192,0.174,0.289,0.273,0.269,0.145,0.090,north-northwest,8.7,No
2019/06/08,06:40,0.189,0.174,0.291,0.272,0.266,0.145,0.090,north-northwest,8.7,No
2019/06/08,06:50,0.192,0.175,0.289,0.274,0.269,0.145,0.090,north-northwest,7.6,Yes
2019/06/08,07:00,0.191,0.174,0.292,0.272,0.267,0.148,0.090,north-northwest,8.1,No
2019/06/08,07:10,0.193,0.175,0.289,0.274,0.268,0.146,0.090,north-northwest,8.1,No
2019/06/08,07:20,0.190,0.175,0.292,0.273,0.266,0.146,0.090,north-northwest,9.2,No
2019/06/08,07:30,0.193,0.176,0.289,0.274,0.270,0.146,0.090,north-northwest,8.7,No
2019/06/08,07:40,0.190,0.175,0.292,0.272,0.268,0.146,0.090,north-northwest,7.6,No
2019/06/08,07:50,0.192,0.175,0.290,0.274,0.269,0.146,0.090,north-northwest,7.3,No
2019/06/08,08:00,0.190,0.176,0.290,0.271,0.267,0.146,0.092,north-northwest,6.2,Yes
2019/06/08,08:10,0.191,0.176,0.290,0.274,0.269,0.146,0.091,north-northwest,6.6,Yes
2019/06/08,08:20,0.192,0.178,0.293,0.272,0.267,0.148,0.092,north-northwest,7.1,Yes
2019/06/08,08:30,0.193,0.178,0.292,0.274,0.270,0.148,0.092,north-northwest,7.1,Yes
2019/06/08,08:40,0.195,0.179,0.293,0.274,0.269,0.151,0.095,north,6.6,Yes
2019/06/08,08:50,0.195,0.180,0.293,0.276,0.272,0.150,0.095,north-northwest,7.6,Yes
2019/06/08,09:00,0.195,0.181,0.294,0.275,0.271,0.153,0.098,north-northwest,8.2,Yes
2019/06/08,09:10,0.198,0.183,0.295,0.278,0.275,0.154,0.098,northwest,8.1,Yes
2019/06/08,09:20,0.198,0.183,0.294,0.279,0.273,0.154,0.100,north-northwest,7.6,Yes
2019/06/08,09:30,0.197,0.184,0.295,0.279,0.275,0.156,0.100,north-northwest,8.5,Yes
2019/06/08,09:40,0.198,0.184,0.295,0.277,0.274,0.154,0.100,northwest,6.3,Yes
2019/06/08,09:50,0.197,0.184,0.296,0.277,0.276,0.154,0.100,north-northwest,6.0,Yes
2019/06/08,10:00,0.197,0.182,0.293,0.275,0.273,0.155,0.099,north-northwest,7.0,No
2019/06/08,10:10,0.196,0.183,0.293,0.276,0.275,0.153,0.097,north-northwest,6.0,No
2019/06/08,10:20,0.196,0.180,0.292,0.275,0.272,0.151,0.097,north-northwest,7.3,No
2019/06/08,10:30,0.193,0.181,0.293,0.275,0.274,0.151,0.095,north-northwest,7.8,No
2019/06/08,10:40,0.193,0.177,0.291,0.272,0.268,0.148,0.095,north-northwest,6.9,No
2019/06/08,10:50,0.192,0.177,0.292,0.274,0.272,0.148,0.094,north-northwest,6.5,No
2019/06/08,11:00,0.192,0.177,0.289,0.272,0.268,0.147,0.094,north-northwest,5.7,Yes
2019/06/08,11:10,0.192,0.177,0.290,0.273,0.270,0.149,0.094,north-northwest,4.9,Yes
2019/06/08,11:20,0.191,0.176,0.287,0.271,0.270,0.146,0.092,north-northwest,5.1,No
2019/06/08,11:30,0.192,0.176,0.290,0.271,0.268,0.146,0.092,north-northwest,4.4,No
2019/06/08,11:40,0.191,0.176,0.287,0.270,0.268,0.145,0.091,north-northwest,6.5,No
2019/06/08,11:50,0.192,0.176,0.289,0.272,0.268,0.146,0.091,northwest,6.3,Yes
2019/06/08,12:00,0.192,0.177,0.289,0.273,0.271,0.148,0.094,north-northwest,6.0,Yes
2019/06/08,12:10,0.193,0.177,0.290,0.272,0.269,0.147,0.093,north,6.4,No
2019/06/08,12:20,0.190,0.176,0.288,0.272,0.271,0.148,0.093,north,6.0,No
2019/06/08,12:30,0.192,0.177,0.290,0.272,0.268,0.148,0.093,north-northwest,7.3,Yes
2019/06/08,12:40,0.192,0.177,0.288,0.273,0.271,0.148,0.094,north,5.9,Yes
2019/06/08,12:50,0.192,0.176,0.291,0.270,0.268,0.147,0.093,north,6.5,No
2019/06/08,13:00,0.190,0.177,0.289,0.272,0.271,0.148,0.093,north,6.7,No
2019/06/08,13:10,0.192,0.176,0.291,0.271,0.268,0.148,0.093,north-northwest,6.6,No
2019/06/08,13:20,0.191,0.176,0.288,0.272,0.271,0.147,0.093,north,6.5,Yes
2019/06/08,13:30,0.192,0.176,0.291,0.270,0.268,0.147,0.093,north-northwest,5.9,Yes
2019/06/08,13:40,0.191,0.176,0.288,0.272,0.269,0.148,0.093,north-northwest,6.7,Yes
2019/06/08,13:50,0.191,0.175,0.290,0.271,0.268,0.146,0.092,north-northwest,5.1,No
2019/06/08,14:00,0.190,0.176,0.286,0.272,0.270,0.147,0.094,north,6.2,No
2019/06/08,14:10,0.191,0.176,0.290,0.271,0.269,0.147,0.092,north-northwest,4.8,Yes
2019/06/08,14:20,0.190,0.177,0.288,0.272,0.271,0.148,0.093,north-northwest,4.1,No
2019/06/08,14:30,0.191,0.175,0.289,0.270,0.268,0.146,0.092,north-northwest,4.1,No
2019/06/08,14:40,0.189,0.177,0.287,0.271,0.268,0.145,0.091,northwest,3.7,No
2019/06/08,14:50,0.191,0.174,0.287,0.269,0.269,0.146,0.091,north,3.1,No
2019/06/08,15:00,0.189,0.175,0.285,0.271,0.265,0.144,0.091,north,6.8,No
2019/06/08,15:10,0.190,0.174,0.289,0.270,0.268,0.145,0.091,north,7.5,No
2019/06/08,15:20,0.190,0.174,0.286,0.270,0.266,0.145,0.091,north,7.0,No
2019/06/08,15:30,0.190,0.174,0.288,0.271,0.269,0.144,0.090,north,6.5,No
2019/06/08,15:40,0.189,0.175,0.286,0.269,0.267,0.144,0.090,north-northwest,5.2,No
2019/06/08,15:50,0.189,0.174,0.287,0.270,0.267,0.143,0.090,north,5.3,No
2019/06/08,16:00,0.189,0.173,0.286,0.268,0.267,0.144,0.090,north-northwest,4.9,No
2019/06/08,16:10,0.188,0.174,0.286,0.271,0.264,0.143,0.089,north-northwest,3.5,No
2019/06/08,16:20,0.189,0.172,0.286,0.268,0.267,0.143,0.088,north-northwest,4.6,No
2019/06/08,16:30,0.187,0.173,0.284,0.269,0.266,0.143,0.089,north-northwest,3.4,No
2019/06/08,16:40,0.189,0.172,0.287,0.270,0.264,0.144,0.088,north,2.3,No
2019/06/08,16:50,0.189,0.174,0.284,0.267,0.266,0.142,0.089,north,3.9,No
2019/06/08,17:00,0.190,0.171,0.287,0.270,0.267,0.143,0.088,north,4.1,No
2019/06/08,17:10,0.188,0.174,0.285,0.268,0.264,0.143,0.089,north,5.9,No
2019/06/08,17:20,0.189,0.172,0.288,0.271,0.268,0.143,0.089,north,6.5,No
2019/06/08,17:30,0.188,0.174,0.286,0.268,0.266,0.143,0.089,north,8.8,No
2019/06/08,17:40,0.188,0.173,0.286,0.268,0.267,0.143,0.089,north,7.6,No
2019/06/08,17:50,0.189,0.174,0.287,0.269,0.265,0.144,0.089,north-northeast,7.7,No
2019/06/08,18:00,0.190,0.173,0.286,0.269,0.266,0.143,0.089,north-northeast,7.8,No
2019/06/08,18:10,0.188,0.174,0.286,0.269,0.265,0.142,0.089,northeast,4.6,No
2019/06/08,18:20,0.190,0.173,0.286,0.270,0.266,0.143,0.088,northeast,5.6,No
2019/06/08,18:30,0.189,0.172,0.285,0.269,0.268,0.143,0.088,northeast,4.8,No
2019/06/08,18:40,0.190,0.173,0.287,0.269,0.267,0.142,0.088,north-northeast,3.8,No
2019/06/08,18:50,0.189,0.173,0.286,0.269,0.267,0.144,0.089,north-northwest,3.3,No
2019/06/08,19:00,0.190,0.173,0.287,0.268,0.267,0.143,0.088,north-northwest,4.3,No
2019/06/08,19:10,0.189,0.173,0.285,0.268,0.265,0.143,0.089,north-northwest,5.9,Yes
2019/06/08,19:20,0.189,0.173,0.288,0.271,0.266,0.144,0.089,north,5.3,Yes
2019/06/08,19:30,0.190,0.174,0.287,0.269,0.266,0.145,0.090,north-northwest,5.7,No
2019/06/08,19:40,0.189,0.174,0.287,0.271,0.269,0.145,0.090,north-northwest,6.2,No
2019/06/08,19:50,0.190,0.174,0.289,0.270,0.266,0.145,0.089,north-northwest,5.6,No
2019/06/08,20:00,0.190,0.173,0.288,0.270,0.268,0.144,0.090,north-northwest,5.8,No
2019/06/08,20:10,0.190,0.175,0.288,0.269,0.265,0.145,0.089,north,6.4,No
2019/06/08,20:20,0.190,0.173,0.286,0.271,0.269,0.145,0.090,north-northwest,6.4,No
2019/06/08,20:30,0.192,0.174,0.289,0.269,0.267,0.145,0.090,north-northwest,7.8,No
2019/06/08,20:40,0.189,0.174,0.286,0.270,0.267,0.145,0.089,north-northwest,7.7,No
2019/06/08,20:50,0.190,0.174,0.288,0.271,0.268,0.145,0.089,north-northwest,7.5,No
2019/06/08,21:00,0.190,0.173,0.286,0.269,0.266,0.144,0.089,north-northwest,8.2,No
2019/06/08,21:10,0.190,0.173,0.287,0.269,0.268,0.144,0.088,north-northwest,8.6,No
2019/06/08,21:20,0.189,0.174,0.287,0.268,0.264,0.144,0.089,north-northwest,9.0,No
2019/06/08,21:30,0.188,0.174,0.287,0.271,0.267,0.143,0.089,north-northwest,7.3,No
2019/06/08,21:40,0.189,0.173,0.289,0.270,0.264,0.144,0.088,north-northwest,7.9,No
2019/06/08,21:50,0.189,0.173,0.288,0.271,0.267,0.143,0.089,north-northwest,7.3,No
2019/06/08,22:00,0.190,0.173,0.288,0.269,0.265,0.144,0.088,north-northwest,6.7,No
2019/06/08,22:10,0.188,0.173,0.287,0.270,0.267,0.143,0.089,north-northwest,6.6,No
2019/06/08,22:20,0.190,0.172,0.287,0.270,0.265,0.143,0.088,north-northwest,6.8,No
2019/06/08,22:30,0.189,0.172,0.288,0.269,0.267,0.143,0.088,north-northwest,5.9,No
2019/06/08,22:40,0.190,0.173,0.287,0.270,0.265,0.144,0.089,north-northwest,5.4,No
2019/06/08,22:50,0.189,0.174,0.288,0.268,0.266,0.144,0.088,north-northwest,6.3,No
2019/06/08,23:00,0.190,0.173,0.285,0.271,0.267,0.144,0.088,north-northwest,5.7,No
2019/06/08,23:10,0.189,0.174,0.289,0.269,0.264,0.143,0.088,north-northwest,5.1,No
2019/06/08,23:20,0.190,0.172,0.286,0.270,0.266,0.143,0.088,north,4.9,No
2019/06/08,23:30,0.189,0.173,0.287,0.269,0.266,0.143,0.089,north-northwest,5.6,No
2019/06/08,23:40,0.188,0.172,0.285,0.271,0.267,0.143,0.088,north-northwest,5.4,No
2019/06/08,23:50,0.189,0.172,0.288,0.269,0.265,0.143,0.089,north,4.8,No
